[[{"header":{"parameterUnit":"m.s-1","parameterCategory":1,"la1":30.2991,"la2":30.254,"lo1":-89.0895,"lo2":-89.0444,"dy":0.0017,"dx":0.0017,"nx":28,"ny":28,"refTime":"2024-07-14T09:00:00:Z","depth":0,"parameterNumber":2,"parameterNumberName":"U-component_of_WINDS"},"data":[0,0,0,0,0,0,0,0,0,0,0,0,0,0,0,0,0,0,0,0,0,0,0,0,0,0,0,0,0,0,0,0,0,0,0,0,0,0,0,0,0,0,0,0,0,0,0,0,0,0,0,0,0,0,0,0,0,0,1.8858,1.8858,0,1.8921,1.8922,1.8922,1.89,1.8899,1.8897,1.8896,1.8961,1.8964,1.8967,0,0,0,0,0,0,0,0,0,0,0,0,0,1.8715,1.8718,1.8858,1.8858,1.8859,1.8921,1.8922,1.8922,1.8901,1.8899,1.8897,1.8896,1.896,1.8963,1.8967,0,0,0,0,0,0,0,0,0,0,0,0,0,1.8778,1.8719,1.8857,1.8856,1.8856,1.8921,1.8922,1.8923,1.8901,1.8899,1.8897,1.8895,1.8959,1.8963,1.8968,1.9038,0,0,1.8981,1.8983,0,0,0,0,0,0,0,0,1.8774,1.8783,1.8855,1.8856,1.8856,1.8901,1.8895,1.8961,1.8901,1.8884,1.8896,1.8894,1.8942,1.8948,1.8965,1.9041,1.9043,1.8982,1.8985,1.8986,1.8988,0,0,0,0,0,0,0,1.877,1.878,1.8883,1.8856,1.8857,1.8851,1.8857,1.8908,1.8924,1.8885,1.8884,1.8892,1.8942,1.896,1.8966,1.9044,1.8982,1.8986,1.8988,1.899,1.9177,1.918,0,0,0,0,0,0,1.8765,1.8777,1.8881,1.8884,1.8809,1.8855,1.8862,1.8889,1.8924,1.8927,1.8893,1.889,1.8954,1.8961,1.8968,1.905,1.8986,1.8991,1.8993,1.9175,1.9178,1.918,0,0,0,0,0,0,1.8763,1.8775,1.8878,1.883,1.8843,1.886,1.8889,1.8891,1.8909,1.893,1.8932,1.8909,1.8952,1.8962,1.902,1.9052,1.8993,1.8997,1.9173,1.9176,1.9179,1.9216,0,0,0,0,0,0,1.8759,1.8774,1.8802,1.8831,1.8846,1.8929,1.8891,1.8894,1.8917,1.8913,1.8945,1.8948,1.8951,1.9013,1.9024,1.9057,1.9,1.917,1.9174,1.9178,1.9212,1.922,1.9227,0,0,0,0,0,1.8754,1.881,1.8803,1.8816,1.888,1.8931,1.8939,1.8942,1.8919,1.8946,1.8959,1.8947,1.9047,1.9019,1.9032,1.9066,1.9168,1.9173,1.9178,1.9208,1.9219,1.9227,0,0,0,0,0,0,1.8784,1.8814,1.8807,1.8874,1.89,1.8927,1.8962,1.8953,1.8986,1.8982,1.8984,1.8991,1.905,1.9064,1.9033,1.9134,1.9104,1.9112,1.9123,1.9133,1.914,1.9135,1.9004,0,0,0,0,0,1.8799,1.8838,1.8862,1.8919,1.8933,1.8945,1.8967,1.8967,1.8994,1.9005,1.9022,1.9049,1.9086,1.911,1.9146,1.9214,1.9219,1.9244,1.9252,1.9258,1.9264,1.9299,1.9309,1.9197,1.9197,1.9197,0,0,1.883,1.8851,1.8876,1.8926,1.8946,1.8986,1.8955,1.8999,1.9027,1.9012,1.9067,1.908,1.911,1.9172,1.9201,1.9186,1.9296,1.9264,1.9269,1.9272,1.9305,1.9315,1.9325,1.92,1.92,1.9199,0,0,1.8906,1.8926,1.8975,1.8996,1.9026,1.9033,1.9045,1.9073,1.9081,1.9136,1.9125,1.9159,1.9224,1.9244,1.9263,1.9344,1.9333,1.9355,1.9395,1.9429,1.9437,1.9445,1.9472,1.9482,1.9362,1.9362,1.9362,0,1.894,1.9,1.9001,1.9045,1.9067,1.9054,1.9102,1.9122,1.9163,1.9177,1.916,1.9239,1.9258,1.9324,1.9343,1.936,1.9372,1.9351,1.9436,1.9444,1.9451,1.9476,1.9487,1.9364,1.9364,1.9364,1.9364,0,1.9039,1.908,1.9116,1.9154,1.918,1.9226,1.9234,1.9259,1.9256,1.9265,1.932,1.9342,1.9381,1.9397,1.9395,1.9462,1.9451,1.9435,1.9404,1.9464,1.9488,1.9498,1.9368,1.9367,1.9366,1.9366,0,0,1.9136,1.9174,1.9187,1.9203,1.9235,1.9266,1.9311,1.9348,1.9369,1.9397,1.9433,1.9487,1.9471,1.9493,1.9493,1.9522,1.9582,1.9502,1.9503,1.9514,1.9654,1.9664,1.9676,1.9575,1.9577,1.9578,1.9651,0,1.9213,1.9291,1.9293,1.9365,1.9401,1.9389,1.9427,1.945,1.9459,1.9491,1.9501,1.9538,1.9516,1.9528,1.9557,1.9569,1.961,1.9564,1.9607,1.9609,1.9599,1.9689,1.9701,1.9768,1.966,1.9662,1.9663,0,1.9313,1.9343,1.9418,1.9442,1.9457,1.9492,1.9524,1.9556,1.9581,1.9585,1.9608,1.9603,1.9647,1.9615,1.9674,1.9643,1.9661,1.9669,1.9672,1.9675,1.9639,1.9692,1.979,1.9799,1.9678,1.9677,1.9676,0,1.9374,1.9433,1.9485,1.9499,1.9529,1.9553,1.9567,1.959,1.9611,1.964,1.9653,1.9687,1.9705,1.973,1.9734,1.9711,1.9793,1.9762,1.9796,1.9796,1.9813,1.9811,1.9913,1.9827,1.9827,1.9827,1.9827,0,1.9458,1.9504,1.9512,1.9544,1.9594,1.9595,1.9644,1.9656,1.9676,1.9708,1.97,1.973,1.9734,1.9765,1.9769,1.9816,1.9825,1.9828,1.9828,1.9828,1.9827,1.9839,1.9833,1.983,1.9829,1.9829,1.9828,0,1.9534,1.9542,1.9597,1.962,1.9627,1.9662,1.9682,1.9711,1.9718,1.976,1.9769,1.9781,1.9817,1.9823,1.9867,1.9868,1.9924,1.992,1.9916,1.9914,1.9947,1.9943,2.0058,2.0072,1.998,1.9981,1.9981,0,1.9587,1.9621,1.9648,1.9669,1.9683,1.9718,1.9739,1.9741,1.9763,1.9793,1.9818,1.9853,1.9881,1.9939,1.9951,1.9983,1.9979,2.0017,1.9984,1.9981,1.9977,1.9974,1.9976,2.0023,2.0024,2.0025,2.0025,0,1.9678,1.968,1.9711,1.9743,1.9768,1.9793,1.9817,1.9835,1.9839,1.9865,1.9901,1.9923,1.9966,2.0,2.0031,2.0044,2.0035,2.0036,2.0045,2.0044,2.0039,2.004,1.9931,2.0033,2.0032,2.0032,2.0031,2.0031,1.9743,1.9772,1.9794,1.9828,1.9846,1.9868,1.9896,1.9906,1.9937,1.9971,1.9971,2.001,2.0032,2.0073,2.0088,2.0118,2.0106,2.012,2.0123,2.0126,2.0128,2.0035,2.0124,2.0124,2.0124,2.0123,2.0123,0,1.9832,1.9845,1.9877,1.991,1.9936,1.9925,1.995,1.9972,2.0007,2.0028,2.0056,2.0096,2.0129,2.0143,2.0174,2.0195,2.0192,2.0203,2.0201,2.0204,2.0138,2.0126,2.0206,2.0206,2.0206,2.0206,2.0206,2.0206,1.9881,1.9929,1.9933,1.9989,2.0001,2.004,2.0055,2.0074,2.009,2.0136,2.0163,2.0172,2.0189,2.0222,2.025,2.0253,2.0265,2.0278,2.0279,2.0217,2.0209,2.0201,2.0189,2.0281,2.0281,2.0341,2.0342,2.0342]},{"header":{"parameterUnit":"m.s-1","parameterCategory":1,"la1":30.2991,"la2":30.254,"lo1":-89.0895,"lo2":-89.0444,"dy":0.0017,"dx":0.0017,"nx":28,"ny":28,"refTime":"2024-07-14T09:00:00:Z","depth":0,"parameterNumber":3,"parameterNumberName":"V-component_of_WINDS"},"data":[0,0,0,0,0,0,0,0,0,0,0,0,0,0,0,0,0,0,0,0,0,0,0,0,0,0,0,0,0,0,0,0,0,0,0,0,0,0,0,0,0,0,0,0,0,0,0,0,0,0,0,0,0,0,0,0,0,0,3.8697,3.8697,0,3.866,3.8659,3.8659,3.859,3.8589,3.8588,3.8586,3.8548,3.8548,3.8548,0,0,0,0,0,0,0,0,0,0,0,0,0,3.8708,3.8708,3.8697,3.8697,3.8696,3.866,3.8659,3.8659,3.8591,3.8589,3.8587,3.8586,3.8548,3.8548,3.8548,0,0,0,0,0,0,0,0,0,0,0,0,0,3.869,3.8708,3.8697,3.8658,3.8654,3.866,3.8659,3.8659,3.8591,3.8589,3.8587,3.8585,3.8548,3.8548,3.8548,3.8589,0,0,3.8549,3.8549,0,0,0,0,0,0,0,0,3.8691,3.869,3.8664,3.866,3.8656,3.8628,3.8649,3.8635,3.8591,3.8615,3.8586,3.8584,3.8576,3.8574,3.8571,3.8588,3.8586,3.8549,3.8549,3.8549,3.8549,0,0,0,0,0,0,0,3.8692,3.8691,3.8682,3.8664,3.8659,3.8641,3.8637,3.8646,3.8607,3.8613,3.8608,3.8604,3.8573,3.8571,3.857,3.8585,3.8549,3.8549,3.8549,3.855,3.8631,3.8633,0,0,0,0,0,0,3.87,3.8692,3.8683,3.8681,3.8669,3.8643,3.8638,3.8639,3.8607,3.86,3.8606,3.8601,3.8571,3.8569,3.8568,3.8612,3.8549,3.855,3.855,3.8629,3.8631,3.8633,0,0,0,0,0,0,3.87,3.8699,3.8685,3.8685,3.8682,3.8645,3.8647,3.8639,3.8636,3.8601,3.8594,3.8611,3.857,3.8568,3.8584,3.8609,3.855,3.855,3.8626,3.863,3.8632,3.8701,0,0,0,0,0,0,3.8701,3.87,3.8716,3.8686,3.8682,3.8702,3.8648,3.864,3.8637,3.8631,3.8604,3.8598,3.8568,3.8584,3.8584,3.8609,3.855,3.8624,3.8628,3.8631,3.8696,3.8706,3.8715,0,0,0,0,0,3.8701,3.8737,3.8717,3.8716,3.8701,3.8704,3.8702,3.8667,3.864,3.8654,3.8632,3.8598,3.8607,3.8586,3.8586,3.8611,3.8622,3.8627,3.8631,3.8692,3.8704,3.8714,0,0,0,0,0,0,3.8771,3.8733,3.871,3.8737,3.8724,3.8692,3.871,3.8681,3.8676,3.867,3.8627,3.8621,3.8643,3.8629,3.8606,3.8648,3.8609,3.8614,3.8656,3.8667,3.8676,3.8678,3.855,0,0,0,0,0,3.8789,3.8795,3.8761,3.8789,3.8783,3.8748,3.8748,3.8722,3.8707,3.8701,3.868,3.8666,3.8665,3.8666,3.8663,3.8695,3.8686,3.8712,3.8721,3.8728,3.8732,3.8745,3.8755,3.8648,3.8648,3.8648,0,0,3.8828,3.8807,3.8814,3.8802,3.8789,3.8795,3.8744,3.8753,3.8756,3.8702,3.8716,3.87,3.8681,3.8705,3.8714,3.8694,3.876,3.8734,3.874,3.874,3.8751,3.8761,3.877,3.8651,3.8651,3.865,0,0,3.8899,3.8886,3.8906,3.8894,3.8874,3.8851,3.8856,3.8828,3.8815,3.8828,3.8787,3.879,3.8791,3.8779,3.8773,3.8839,3.8807,3.884,3.8886,3.8899,3.8907,3.8915,3.8936,3.8944,3.8844,3.8844,3.8844,0,3.8949,3.8957,3.892,3.8931,3.8926,3.8878,3.8897,3.8887,3.8868,3.8865,3.8843,3.8841,3.8826,3.8844,3.886,3.8858,3.8861,3.8842,3.8909,3.8916,3.8922,3.8942,3.895,3.8848,3.8848,3.8847,3.8847,0,3.9017,3.9023,3.9042,3.9024,3.9022,3.9037,3.9001,3.9003,3.8978,3.8956,3.8969,3.8949,3.894,3.8943,3.8919,3.8958,3.8945,3.8917,3.8877,3.8937,3.8955,3.8962,3.8854,3.8852,3.8851,3.885,0,0,3.9131,3.9093,3.91,3.909,3.9065,3.9068,3.9081,3.9073,3.9074,3.9063,3.907,3.9071,3.9044,3.9038,3.9012,3.9023,3.9074,3.8993,3.8992,3.9007,3.9113,3.9132,3.9142,3.9054,3.9055,3.9056,3.9113,0,3.9196,3.9215,3.9181,3.9208,3.9211,3.9165,3.9176,3.9161,3.9141,3.9141,3.9119,3.9119,3.9085,3.908,3.909,3.9066,3.9094,3.9062,3.9059,3.9059,3.9062,3.9151,3.9173,3.9228,3.912,3.9121,3.9122,0,3.9273,3.9265,3.9292,3.9263,3.9264,3.9274,3.9262,3.9263,3.9245,3.9229,3.9221,3.919,3.9199,3.9162,3.9172,3.9151,3.9148,3.9136,3.9137,3.9134,3.9093,3.9148,3.9245,3.9252,3.9133,3.9132,3.9132,0,3.935,3.9346,3.9361,3.9355,3.9323,3.933,3.9317,3.9297,3.9294,3.9284,3.9281,3.9273,3.9267,3.9261,3.9228,3.9205,3.9241,3.9202,3.9227,3.9228,3.9235,3.9235,3.933,3.9238,3.9237,3.9237,3.9237,0,3.9425,3.9442,3.9395,3.9404,3.9421,3.9383,3.9401,3.9384,3.9366,3.9369,3.933,3.9334,3.9291,3.9291,3.9265,3.9276,3.9275,3.9261,3.9253,3.9263,3.9264,3.9259,3.9253,3.9239,3.9239,3.9238,3.9238,0,3.9513,3.9482,3.9495,3.9463,3.9456,3.947,3.9442,3.9449,3.9426,3.9431,3.943,3.9395,3.9391,3.9358,3.9348,3.933,3.935,3.9337,3.9356,3.9351,3.9377,3.9374,3.947,3.9479,3.9383,3.9384,3.9385,0,3.9561,3.9573,3.9543,3.9542,3.9531,3.9532,3.9527,3.949,3.9488,3.9467,3.9475,3.9469,3.9461,3.9458,3.9431,3.9422,3.9406,3.9441,3.9405,3.9413,3.9404,3.9402,3.9402,3.9448,3.9449,3.945,3.9451,0,3.9649,3.9633,3.9629,3.9619,3.9615,3.9606,3.9594,3.9596,3.9555,3.9554,3.955,3.9544,3.9533,3.9526,3.9512,3.9498,3.9467,3.9463,3.9467,3.9476,3.9486,3.9478,3.9375,3.946,3.9459,3.9458,3.9458,3.9458,3.9716,3.9724,3.9704,3.97,3.9687,3.9677,3.968,3.9658,3.9654,3.9642,3.9621,3.962,3.9599,3.9578,3.9566,3.9563,3.9545,3.9553,3.9554,3.9556,3.956,3.9488,3.9561,3.9561,3.956,3.956,3.956,0,3.98,3.9784,3.9781,3.9766,3.9762,3.9735,3.972,3.9718,3.9718,3.9702,3.9696,3.969,3.9683,3.9655,3.9645,3.9648,3.9633,3.9646,3.9644,3.9641,3.9578,3.9574,3.9658,3.9658,3.9658,3.9658,3.9658,3.9658,3.9842,3.9853,3.9835,3.9839,3.9823,3.9821,3.9815,3.9804,3.9791,3.9787,3.9781,3.9763,3.9742,3.9729,3.9721,3.9713,3.971,3.9727,3.9714,3.9655,3.9646,3.9637,3.9632,3.9727,3.9727,3.9776,3.9777,3.9777]}]]